Weather History for Martinsburg, WV

Change the Weather History Date:

Sunday, March 4, 2012

  Actual Average Record
Temperature  
Mean Temperature 37 °F 38 °F  
Max Temperature 44 °F 48 °F 83 °F (1974)
Min Temperature 30 °F 28 °F -3 °F (2014)
Degree Days  
Heating Degree Days 28 27  
Month to date heating degree days 85 110  
Since 1 July heating degree days 3326 4066  
Cooling Degree Days 0 0  
Month to date cooling degree days 0 0  
Year to date cooling degree days 0 0  
Moisture  
Dew Point 20 °F    
Average Humidity 51    
Maximum Humidity 63    
Minimum Humidity 38    
Precipitation  
Precipitation 0.00 in 0.10 in 2.31 in (1993)
Month to date precipitation 0.37 0.38  
Year to date precipitation 5.25 5.16  
Sea Level Pressure  
Sea Level Pressure 29.78 in    
Wind  
Wind Speed 9 mph (WNW)    
Max Wind Speed 24 mph    
Max Gust Speed 33 mph    
Visibility 10 miles    
Events      
T = Trace of Precipitation, MM = Missing Value Source: NWS Daily Summary

Daily Weather History Graph

Daily Weather History Graph

Search for Another Location

Airport:

Trip Planner

Search our weather history database for the weather conditions in past years. The results will help you decide how hot, cold, wet, or windy it might be!

Date:

Astronomy

Mar. 04, 2012 Rise Set
Actual Time 6:39 AM EST 6:08 PM EST
Civil Twilight 6:12 AM EST 6:34 PM EST
Nautical Twilight 5:41 AM EST 7:05 PM EST
Astronomical Twilight 5:10 AM EST 7:37 PM EST
Moon 2:19 PM EST (3/4) 3:57 AM EST (3/4)
Length of Visible Light 12h 22m
Length of Day
11h 28m
Waxing Gibbous, 83% of the Moon is Illuminated
Mar 4
Waxing Gibbous
Mar 8
Full
Mar 14
Last Quarter
Mar 22
New
Mar 30
First Quarter

Hourly Weather History & Observations

Time (EST) Temp. Windchill Dew Point Humidity Pressure Visibility Wind Dir Wind Speed Gust Speed Precip Events Conditions
12:53 AM 41.0 °F 35.2 °F 24.1 °F 51% 29.75 in 10.0 mi NW 9.2 mph - N/A   Clear
1:53 AM 39.9 °F 33.9 °F 24.1 °F 53% 29.73 in 10.0 mi NW 9.2 mph - N/A   Clear
2:53 AM 39.0 °F 33.4 °F 24.1 °F 55% 29.72 in 10.0 mi NNW 8.1 mph - N/A   Clear
3:53 AM 37.0 °F 34.5 °F 23.0 °F 57% 29.74 in 10.0 mi North 3.5 mph - N/A   Clear
4:53 AM 35.1 °F 30.1 °F 21.9 °F 59% 29.75 in 10.0 mi West 5.8 mph - N/A   Clear
5:53 AM 34.0 °F - 21.9 °F 61% 29.75 in 10.0 mi Calm Calm - N/A   Clear
6:53 AM 33.1 °F 26.9 °F 21.9 °F 64% 29.75 in 10.0 mi WNW 6.9 mph - N/A   Clear
7:53 AM 36.0 °F 31.1 °F 21.0 °F 55% 29.75 in 10.0 mi NNW 5.8 mph - N/A   Scattered Clouds
8:53 AM 37.9 °F 32.1 °F 19.9 °F 48% 29.75 in 10.0 mi WNW 8.1 mph 18.4 mph N/A   Overcast
9:53 AM 41.0 °F 33.9 °F 21.0 °F 45% 29.75 in 10.0 mi West 12.7 mph 23.0 mph N/A   Overcast
10:53 AM 39.9 °F 32.5 °F 18.0 °F 41% 29.75 in 10.0 mi West 12.7 mph - N/A   Overcast
11:53 AM 39.9 °F 32.9 °F 17.1 °F 40% 29.74 in 10.0 mi WNW 11.5 mph - N/A   Overcast
12:53 PM 41.0 °F 33.5 °F 18.0 °F 40% 29.73 in 10.0 mi WNW 13.8 mph - N/A   Overcast
1:53 PM 39.9 °F 32.5 °F 19.0 °F 43% 29.73 in 10.0 mi WNW 12.7 mph - N/A   Overcast
2:53 PM 39.9 °F 31.1 °F 21.9 °F 49% 29.75 in 10.0 mi WNW 17.3 mph 23.0 mph N/A   Overcast
3:53 PM 39.9 °F 32.1 °F 24.1 °F 53% 29.75 in 10.0 mi West 13.8 mph - N/A   Overcast
4:53 PM 37.9 °F 30.0 °F 19.9 °F 48% 29.77 in 10.0 mi West 12.7 mph - N/A   Mostly Cloudy
5:53 PM 37.9 °F 29.6 °F 18.0 °F 45% 29.79 in 10.0 mi WNW 13.8 mph - N/A   Partly Cloudy
6:53 PM 36.0 °F 28.5 °F 18.0 °F 48% 29.82 in 10.0 mi West 10.4 mph - N/A   Clear
7:53 PM 35.1 °F 30.1 °F 18.0 °F 50% 29.84 in 10.0 mi West 5.8 mph - N/A   Scattered Clouds
8:53 PM 30.0 °F 22.4 °F 19.0 °F 64% 29.86 in 10.0 mi WSW 8.1 mph - N/A   Partly Cloudy
9:53 PM 32.0 °F 25.6 °F 19.0 °F 59% 29.88 in 10.0 mi SW 6.9 mph - N/A   Clear
10:53 PM 30.9 °F 24.3 °F 19.9 °F 64% 29.89 in 10.0 mi WSW 6.9 mph - N/A   Clear
11:53 PM 32.0 °F 28.7 °F 19.0 °F 59% 29.91 in 10.0 mi SSW 3.5 mph - N/A   Clear